Location: Killam
(52.7910°N, 111.8608°W)
Time: 10:25:44
(UTC+00:00)

SR - Pass Details

Date: 18 February 2026
Orbit: 573 x 848 km, 66.7° (Epoch: 7 March)

Event Time Altitude Azimuth Distance (km) Brightness Sun altitude
Exits shadow 12:52:36 27° 235° (SW) 1,167 ? -16.5°
Maximum altitude 12:54:54 69° 313° (NW) 654 ? -16.2°
Drops below altitude 10° 12:59:26 10° 37° (NE) 2,034 ? -15.5°
Sets 13:01:50 0° 40° (NE) 2,991 ? -15.1°
